EW2546 Weather Reports


Display with metric or nautical units.
time (UTC)temp
F
wind
direction
speed
MPH
gust
MPH
rain 1hr
in
rain 24hr
in
rain mn
in
humidity
%
barometer
mb
20260830235530 67 0 0.0 0.0 0.00 0.00 0.00 87 1015.1
20260830235032 67 0 0.0 0.0 0.00 0.00 0.00 87 1015.1
20260830234610 67 0 0.0 0.0 0.00 0.00 0.00 86 1015.0
20260830234025 67 0 0.0 0.0 0.00 0.00 0.00 85 1015.0
20260830233527 67 0 0.0 0.0 0.00 0.00 0.00 85 1014.9
20260830233052 67 0 0.0 0.0 0.00 0.00 0.00 85 1014.9
20260830232529 67 0 0.0 0.0 0.00 0.00 0.00 84 1014.9
20260830232027 67 0 0.0 0.0 0.00 0.00 0.00 84 1014.8
20260830231548 67 0 0.0 0.0 0.00 0.00 0.00 83 1014.7
20260830231025 67 0 0.0 0.0 0.00 0.00 0.00 85 1014.7
20260830230526 68 0 0.0 0.0 0.00 0.00 0.00 85 1014.7
20260830230045 68 0 0.0 0.0 0.00 0.00 0.00 85 1014.7
20260830225528 68 0 0.0 0.0 0.00 0.00 0.00 83 1014.7
20260830225029 68 0 0.0 0.0 0.00 0.00 0.00 84 1014.6
20260830224602 68 0 0.0 0.0 0.00 0.00 0.00 83 1014.9
20260830224024 68 0 0.0 0.0 0.00 0.00 0.00 83 1014.8
20260830223524 68 0 0.0 0.0 0.00 0.00 0.00 82 1014.8
20260830223043 68 0 0.0 0.0 0.00 0.00 0.00 83 1014.8
20260830222524 69 0 0.0 0.0 0.00 0.00 0.00 83 1014.7
20260830222027 69 0 0.0 0.0 0.00 0.00 0.00 82 1014.7
20260830221547 69 0 0.0 0.0 0.00 0.00 0.00 81 1014.5
20260830221025 69 0 0.0 0.0 0.00 0.00 0.00 82 1014.7
20260830220525 69 0 0.0 0.0 0.00 0.00 0.00 83 1014.7
20260830220046 69 0 0.0 0.0 0.00 0.00 0.00 82 1014.6
20260830215525 69 0 0.0 0.0 0.00 0.00 0.00 83 1014.6
20260830215025 69 0 0.0 0.0 0.00 0.00 0.00 83 1014.7
20260830214554 69 0 0.0 0.0 0.00 0.00 0.00 82 1014.8
20260830214024 70 0 0.0 0.0 0.00 0.00 0.00 83 1014.7
20260830213523 70 0 0.0 0.0 0.00 0.00 0.00 83 1014.7
20260830213044 70 0 0.0 0.0 0.00 0.00 0.00 80 1015.0
20260830212524 70 0 0.0 0.0 0.00 0.00 0.00 81 1014.9
20260830212028 70 0 0.0 0.0 0.00 0.00 0.00 81 1014.9
20260830211542 70 0 0.0 0.0 0.00 0.00 0.00 81 1014.8
20260830211027 71 0 0.0 0.0 0.00 0.00 0.00 81 1014.9
20260830210525 71 0 0.0 0.0 0.00 0.00 0.00 81 1014.9
20260830210046 71 0 0.0 0.0 0.00 0.00 0.00 79 1014.8
20260830205527 71 0 0.0 0.0 0.00 0.00 0.00 80 1014.8
20260830205029 71 0 0.0 0.0 0.00 0.00 0.00 81 1014.7
20260830204550 71 0 0.0 0.0 0.00 0.00 0.00 79 1014.7
20260830204024 71 0 0.0 0.0 0.00 0.00 0.00 78 1014.7
20260830203524 71 0 0.0 0.0 0.00 0.00 0.00 77 1014.7
20260830203046 71 0 0.0 0.0 0.00 0.00 0.00 81 1014.8
20260830202528 71 0 0.0 0.0 0.00 0.00 0.00 80 1014.7
20260830202026 71 0 0.0 0.0 0.00 0.00 0.00 82 1014.7
20260830201610 71 0 0.0 0.0 0.00 0.00 0.00 82 1014.9
20260830201024 71 0 0.0 0.0 0.00 0.00 0.00 83 1014.7
20260830200524 71 0 0.0 0.0 0.00 0.00 0.00 82 1014.9
20260830200044 71 0 0.0 0.0 0.00 0.00 0.00 84 1015.0
20260830195524 71 0 0.0 0.0 0.00 0.00 0.00 82 1015.1
20260830195025 71 0 0.0 0.0 0.00 0.00 0.00 80 1015.1
20260830194548 71 0 0.0 0.0 0.00 0.00 0.00 81 1015.2
20260830194024 71 0 0.0 0.0 0.00 0.00 0.00 82 1015.4
20260830193525 71 0 0.0 0.0 0.00 0.00 0.00 83 1015.4
20260830193047 71 0 0.0 0.0 0.00 0.00 0.00 82 1015.4
20260830192524 71 0 0.0 0.0 0.00 0.00 0.00 83 1015.3
20260830192026 71 0 0.0 0.0 0.00 0.00 0.00 81 1015.3
20260830191552 71 0 0.0 0.0 0.00 0.00 0.00 82 1015.4
20260830191033 71 0 0.0 0.0 0.00 0.00 0.00 82 1015.5
20260830190526 71 0 0.0 0.0 0.00 0.00 0.00 80 1015.6
20260830190051 71 0 0.0 0.0 0.00 0.00 0.00 80 1015.7
20260830185527 71 0 0.0 0.0 0.00 0.00 0.00 81 1015.9
20260830185027 71 0 0.0 0.0 0.00 0.00 0.00 82 1015.9
20260830184546 71 0 0.0 0.0 0.00 0.00 0.00 81 1016.1
20260830184024 70 0 0.0 0.0 0.00 0.00 0.00 82 1016.0
20260830183530 70 0 0.0 0.0 0.00 0.00 0.00 82 1016.3
20260830183044 70 0 0.0 0.0 0.00 0.00 0.00 81 1016.4
20260830182525 70 0 0.0 0.0 0.00 0.00 0.00 82 1016.4
20260830182025 70 0 0.0 0.0 0.00 0.00 0.00 83 1016.5
20260830181605 70 0 0.0 0.0 0.00 0.00 0.00 84 1016.6
20260830181028 70 0 0.0 0.0 0.00 0.00 0.00 82 1016.7
20260830180525 70 0 0.0 0.0 0.00 0.00 0.00 82 1016.7
20260830180054 70 0 0.0 0.0 0.00 0.00 0.00 84 1016.8
20260830175526 69 0 0.0 0.0 0.00 0.00 0.00 83 1016.7
20260830175034 69 0 0.0 0.0 0.00 0.00 0.00 83 1016.6
20260830174544 69 0 0.0 0.0 0.00 0.00 0.00 80 1016.6
20260830174025 69 0 0.0 0.0 0.00 0.00 0.00 84 1016.6
20260830173524 69 0 0.0 0.0 0.00 0.00 0.00 85 1016.6
20260830173043 69 0 0.0 0.0 0.00 0.00 0.00 84 1016.7
20260830172529 69 0 0.0 0.0 0.00 0.00 0.00 84 1016.8
20260830172026 69 0 0.0 0.0 0.00 0.00 0.00 83 1017.0
20260830171551 69 0 0.0 0.0 0.00 0.00 0.00 83 1017.0
20260830171026 69 0 0.0 0.0 0.00 0.00 0.00 83 1017.1
20260830170524 69 0 0.0 0.0 0.00 0.00 0.00 83 1017.0
20260830170047 69 0 0.0 0.0 0.00 0.00 0.00 81 1017.0
20260830165527 69 0 0.0 0.0 0.00 0.00 0.00 81 1017.0
20260830165028 69 0 0.0 0.0 0.00 0.00 0.00 82 1017.0
20260830164553 69 0 0.0 0.0 0.00 0.00 0.00 82 1017.0
20260830164027 69 0 0.0 0.0 0.00 0.00 0.00 82 1016.9
20260830163528 69 0 0.0 0.0 0.00 0.00 0.00 81 1016.8
20260830163047 69 0 0.0 0.0 0.00 0.00 0.00 82 1016.9
20260830162526 69 0 0.0 0.0 0.00 0.00 0.00 82 1016.8
20260830162025 69 0 0.0 0.0 0.00 0.00 0.00 82 1016.9
20260830161543 70 0 0.0 0.0 0.00 0.00 0.00 82 1016.9
20260830161026 70 0 0.0 0.0 0.00 0.00 0.00 81 1017.0
20260830160526 70 0 0.0 0.0 0.00 0.00 0.00 80 1017.0
20260830160043 70 0 0.0 0.0 0.00 0.00 0.00 80 1017.1
20260830155529 70 0 0.0 0.0 0.00 0.00 0.00 81 1017.1
20260830155024 69 0 0.0 0.0 0.00 0.00 0.00 82 1017.1
20260830154549 69 0 0.0 0.0 0.00 0.00 0.00 82 1017.2
20260830154025 69 0 0.0 0.0 0.00 0.00 0.00 83 1017.3
20260830153525 68 0 0.0 0.0 0.00 0.00 0.00 83 1017.4
20260830153047 68 0 0.0 0.0 0.00 0.00 0.00 81 1017.5
20260830152525 68 0 0.0 0.0 0.00 0.00 0.00 83 1017.5
20260830152024 67 0 0.0 0.0 0.00 0.00 0.00 84 1017.6
20260830151542 67 0 0.0 0.0 0.00 0.00 0.00 84 1017.5
20260830151029 67 0 0.0 0.0 0.00 0.00 0.00 84 1017.4
20260830150526 66 0 0.0 0.0 0.00 0.00 0.00 85 1017.5
20260830150044 66 0 0.0 0.0 0.00 0.00 0.00 85 1017.5
20260830145525 66 0 0.0 0.0 0.00 0.00 0.00 84 1017.7
20260830145023 66 0 0.0 0.0 0.00 0.00 0.00 84 1017.8
20260830144545 66 0 0.0 0.0 0.00 0.00 0.00 82 1017.9
20260830144028 65 0 0.0 0.0 0.00 0.00 0.00 83 1018.0
20260830143524 65 0 0.0 0.0 0.00 0.00 0.00 84 1017.9
20260830143046 65 0 0.0 0.0 0.00 0.00 0.00 84 1017.9
20260830142527 65 0 0.0 0.0 0.00 0.00 0.00 85 1017.9
20260830142029 64 0 0.0 0.0 0.00 0.00 0.00 86 1018.0
20260830141542 63 0 0.0 0.0 0.00 0.00 0.00 85 1017.9
20260830141028 63 0 0.0 0.0 0.00 0.00 0.00 86 1018.0
20260830140524 63 0 0.0 0.0 0.00 0.00 0.00 89 1018.1
20260830140043 62 0 0.0 0.0 0.00 0.00 0.00 89 1018.1
20260830135525 62 0 0.0 0.0 0.00 0.00 0.00 91 1018.1
20260830135024 62 0 0.0 0.0 0.00 0.00 0.00 91 1018.2
20260830134545 61 0 0.0 0.0 0.00 0.00 0.00 91 1018.2
20260830134026 61 0 0.0 0.0 0.00 0.00 0.00 91 1018.4
20260830133527 61 0 0.0 0.0 0.00 0.00 0.00 91 1018.5
20260830133046 60 0 0.0 0.0 0.00 0.00 0.00 92 1018.4
20260830132524 60 0 0.0 0.0 0.00 0.00 0.00 92 1018.3
20260830132027 60 0 0.0 0.0 0.00 0.00 0.00 93 1018.3
20260830131542 59 0 0.0 0.0 0.00 0.00 0.00 93 1018.3
20260830131028 59 0 0.0 0.0 0.00 0.00 0.00 93 1018.3
20260830130531 59 0 0.0 0.0 0.00 0.00 0.00 93 1018.3
20260830130050 59 0 0.0 0.0 0.00 0.00 0.00 94 1018.4
20260830125525 58 0 0.0 0.0 0.00 0.00 0.00 93 1018.4
20260830125025 58 0 0.0 0.0 0.00 0.00 0.00 94 1018.4
20260830124555 58 0 0.0 0.0 0.00 0.00 0.00 94 1018.3
20260830124031 58 0 0.0 0.0 0.00 0.00 0.00 94 1018.4
20260830123528 57 0 0.0 0.0 0.00 0.00 0.00 94 1018.5
20260830123042 57 0 0.0 0.0 0.00 0.00 0.00 94 1018.5
20260830122528 57 0 0.0 0.0 0.00 0.00 0.00 94 1018.3
20260830122027 57 0 0.0 0.0 0.00 0.00 0.00 94 1018.5
20260830121550 57 0 0.0 0.0 0.00 0.00 0.00 95 1018.4
20260830121026 56 0 0.0 0.0 0.00 0.00 0.00 95 1018.6
20260830120535 56 0 0.0 0.0 0.00 0.00 0.00 95 1018.5
20260830120050 55 0 0.0 0.0 0.00 0.00 0.00 95 1018.5
20260830115534 55 0 0.0 0.0 0.00 0.00 0.00 95 1018.6
20260830115028 55 0 0.0 0.0 0.00 0.00 0.00 95 1018.4
20260830114554 54 0 0.0 0.0 0.00 0.00 0.00 95 1018.3
20260830114031 54 0 0.0 0.0 0.00 0.00 0.00 95 1018.4
20260830113524 53 0 0.0 0.0 0.00 0.00 0.00 95 1018.6
20260830113041 53 0 0.0 0.0 0.00 0.00 0.00 95 1018.7
20260830112528 53 0 0.0 0.0 0.00 0.00 0.00 95 1018.7
20260830112029 52 0 0.0 0.0 0.00 0.00 0.00 95 1018.6
20260830111548 52 0 0.0 0.0 0.00 0.00 0.00 95 1018.7
20260830111025 52 0 0.0 0.0 0.00 0.00 0.00 95 1018.5
20260830110524 52 0 0.0 0.0 0.00 0.00 0.00 94 1018.6
20260830110048 52 0 0.0 0.0 0.00 0.00 0.00 94 1018.7
20260830105525 52 0 0.0 0.0 0.00 0.00 0.00 94 1018.6
20260830105028 51 0 0.0 0.0 0.00 0.00 0.00 95 1018.5
20260830104542 51 0 0.0 0.0 0.00 0.00 0.00 94 1018.6
20260830104026 51 0 0.0 0.0 0.00 0.00 0.00 94 1018.8
20260830103528 51 0 0.0 0.0 0.00 0.00 0.00 94 1018.8
20260830103053 51 0 0.0 0.0 0.00 0.00 0.00 94 1018.8
20260830102529 51 0 0.0 0.0 0.00 0.00 0.00 94 1018.9
20260830102026 51 0 0.0 0.0 0.00 0.00 0.00 94 1018.9
20260830101543 50 0 0.0 0.0 0.00 0.00 0.00 94 1019.0
20260830101025 50 0 0.0 0.0 0.00 0.00 0.00 94 1019.1
20260830100525 50 0 0.0 0.0 0.00 0.00 0.00 94 1019.1
20260830100046 50 0 0.0 0.0 0.00 0.00 0.00 94 1019.1
20260830095526 50 0 0.0 0.0 0.00 0.00 0.00 94 1019.0
20260830095025 50 0 0.0 0.0 0.00 0.00 0.00 94 1019.1
20260830094604 50 0 0.0 0.0 0.00 0.00 0.00 94 1019.1
20260830094025 50 0 0.0 0.0 0.00 0.00 0.00 94 1019.1
20260830093526 50 0 0.0 0.0 0.00 0.00 0.00 94 1019.2
20260830093050 50 0 0.0 0.0 0.00 0.00 0.00 94 1019.2
20260830092525 50 0 0.0 0.0 0.00 0.00 0.00 94 1019.2
20260830092027 51 0 0.0 0.0 0.00 0.00 0.00 94 1019.2
20260830091545 51 0 0.0 0.0 0.00 0.00 0.00 94 1019.2
20260830091026 51 0 0.0 0.0 0.00 0.00 0.00 94 1019.1
20260830090525 51 0 0.0 0.0 0.00 0.00 0.00 94 1019.2
20260830090048 51 0 0.0 0.0 0.00 0.00 0.00 94 1019.2
20260830085528 51 0 0.0 0.0 0.00 0.00 0.00 94 1019.0
20260830085027 51 0 0.0 0.0 0.00 0.00 0.00 94 1019.1
20260830084553 51 0 0.0 0.0 0.00 0.00 0.00 94 1019.1
20260830084024 51 0 0.0 0.0 0.00 0.00 0.00 94 1019.0
20260830083523 51 0 0.0 0.0 0.00 0.00 0.00 94 1019.1
20260830083058 51 0 0.0 0.0 0.00 0.00 0.00 94 1019.1
20260830082527 51 0 0.0 0.0 0.00 0.00 0.00 94 1019.2
20260830082024 51 0 0.0 0.0 0.00 0.00 0.00 94 1019.3
20260830081544 51 0 0.0 0.0 0.00 0.00 0.00 93 1019.2
20260830081025 51 0 0.0 0.0 0.00 0.00 0.00 94 1019.1
20260830080526 51 0 0.0 0.0 0.00 0.00 0.00 94 1019.1
20260830080049 51 0 0.0 0.0 0.00 0.00 0.00 94 1019.2
20260830075526 51 0 0.0 0.0 0.00 0.00 0.00 94 1019.3
20260830075024 51 0 0.0 0.0 0.00 0.00 0.00 94 1019.3
20260830074548 51 0 0.0 0.0 0.00 0.00 0.00 94 1019.4
20260830074024 51 0 0.0 0.0 0.00 0.00 0.00 93 1019.4
20260830073525 51 0 0.0 0.0 0.00 0.00 0.00 94 1019.4
20260830073105 51 0 0.0 0.0 0.00 0.00 0.00 93 1019.5
20260830072524 51 0 0.0 0.0 0.00 0.00 0.00 94 1019.5
20260830072025 51 0 0.0 0.0 0.00 0.00 0.00 94 1019.4
20260830071544 51 0 0.0 0.0 0.00 0.00 0.00 94 1019.4
20260830071024 51 0 0.0 0.0 0.00 0.00 0.00 93 1019.4
20260830070527 51 0 0.0 0.0 0.00 0.00 0.00 93 1019.4
20260830070044 51 0 0.0 0.0 0.00 0.00 0.00 93 1019.5
20260830065531 51 0 0.0 0.0 0.00 0.00 0.00 93 1019.6
20260830065025 51 0 0.0 0.0 0.00 0.00 0.00 93 1019.5
20260830064547 51 0 0.0 0.0 0.00 0.00 0.00 93 1019.6
20260830064028 51 0 0.0 0.0 0.00 0.00 0.00 93 1019.5
20260830063526 51 0 0.0 0.0 0.00 0.00 0.00 93 1019.5
20260830063048 51 0 0.0 0.0 0.00 0.00 0.00 93 1019.6
20260830062525 51 0 0.0 0.0 0.00 0.00 0.00 93 1019.6
20260830062027 51 0 0.0 0.0 0.00 0.00 0.00 93 1019.7
20260830061618 51 0 0.0 0.0 0.00 0.00 0.00 93 1019.7
20260830061027 51 0 0.0 0.0 0.00 0.00 0.00 93 1019.8
20260830060529 52 0 0.0 0.0 0.00 0.00 0.00 93 1019.8
20260830060051 52 0 0.0 0.0 0.00 0.00 0.00 93 1019.9
20260830055527 52 0 0.0 0.0 0.00 0.00 0.00 93 1019.8
20260830055027 52 0 0.0 0.0 0.00 0.00 0.00 93 1019.8
20260830054547 52 0 0.0 0.0 0.00 0.00 0.00 93 1019.8
20260830054026 52 0 0.0 0.0 0.00 0.00 0.00 93 1019.7
20260830053525 52 0 0.0 0.0 0.00 0.00 0.00 93 1019.8
20260830053044 52 0 0.0 0.0 0.00 0.00 0.00 93 1019.8
20260830052527 52 0 0.0 0.0 0.00 0.00 0.00 93 1019.9
20260830052025 52 0 0.0 0.0 0.00 0.00 0.00 93 1019.9
20260830051554 52 0 0.0 0.0 0.00 0.00 0.00 92 1019.9
20260830051028 52 0 0.0 0.0 0.00 0.00 0.00 93 1019.9
20260830050528 52 0 0.0 0.0 0.00 0.00 0.00 93 1020.1
20260830050049 53 0 0.0 0.0 0.00 0.00 0.00 93 1020.1
20260830045524 53 0 0.0 0.0 0.00 0.00 0.00 92 1020.2
20260830045027 53 0 0.0 0.0 0.00 0.00 0.00 92 1020.2
20260830044543 53 0 0.0 0.0 0.00 0.00 0.00 92 1020.2
20260830044026 53 0 0.0 0.0 0.00 0.00 0.00 92 1020.2
20260830043527 53 0 0.0 0.0 0.00 0.00 0.00 92 1020.2
20260830043120 53 0 0.0 0.0 0.00 0.00 0.00 92 1020.2
20260830042526 53 0 0.0 0.0 0.00 0.00 0.00 92 1020.2
20260830042032 53 0 0.0 0.0 0.00 0.00 0.00 92 1020.2
20260830041555 53 0 0.0 0.0 0.00 0.00 0.00 92 1020.2
20260830041025 53 0 0.0 0.0 0.00 0.00 0.00 92 1020.3
20260830040525 53 0 0.0 0.0 0.00 0.00 0.00 92 1020.1
20260830040059 54 0 0.0 0.0 0.00 0.00 0.00 92 1020.2
20260830035525 54 0 0.0 0.0 0.00 0.00 0.00 91 1020.2
20260830035028 54 0 0.0 0.0 0.00 0.00 0.00 91 1020.3
20260830034544 54 0 0.0 0.0 0.00 0.00 0.00 91 1020.3
20260830034025 54 0 0.0 0.0 0.00 0.00 0.00 91 1020.3
20260830033530 54 0 0.0 0.0 0.00 0.00 0.00 91 1020.3
20260830033043 55 0 0.0 0.0 0.00 0.00 0.00 91 1020.3
20260830032525 55 0 0.0 0.0 0.00 0.00 0.00 91 1020.3
20260830032026 55 0 0.0 0.0 0.00 0.00 0.00 91 1020.2
20260830031544 55 0 0.0 0.0 0.00 0.00 0.00 91 1020.3
20260830031027 55 0 0.0 0.0 0.00 0.00 0.00 91 1020.3
20260830030526 55 0 0.0 0.0 0.00 0.00 0.00 91 1020.3
20260830030047 55 0 0.0 0.0 0.00 0.00 0.00 91 1020.4
20260830025526 55 0 0.0 0.0 0.00 0.00 0.00 91 1020.3
20260830025023 55 0 0.0 0.0 0.00 0.00 0.00 90 1020.3
20260830024545 55 0 0.0 0.0 0.00 0.00 0.00 90 1020.3
20260830024024 55 0 0.0 0.0 0.00 0.00 0.00 90 1020.3
20260830023528 56 0 0.0 0.0 0.00 0.00 0.00 90 1020.4
20260830023044 56 0 0.0 0.0 0.00 0.00 0.00 90 1020.4
20260830022524 56 0 0.0 0.0 0.00 0.00 0.00 89 1020.5
20260830022027 56 0 0.0 0.0 0.00 0.00 0.00 89 1020.5
20260830021545 56 0 0.0 0.0 0.00 0.00 0.00 89 1020.5
20260830021024 56 0 0.0 0.0 0.00 0.00 0.00 88 1020.5
20260830020524 56 0 0.0 0.0 0.00 0.00 0.00 88 1020.5
20260830020054 56 0 0.0 0.0 0.00 0.00 0.00 88 1020.4
20260830015526 56 0 0.0 0.0 0.00 0.00 0.00 88 1020.4
20260830015027 56 0 0.0 0.0 0.00 0.00 0.00 88 1020.4
20260830014542 57 0 0.0 0.0 0.00 0.00 0.00 87 1020.5
20260830014024 57 0 0.0 0.0 0.00 0.00 0.00 87 1020.5
20260830013526 57 0 0.0 0.0 0.00 0.00 0.00 86 1020.4
20260830013051 57 0 0.0 0.0 0.00 0.00 0.00 86 1020.5
20260830012527 58 0 0.0 0.0 0.00 0.00 0.00 86 1020.6
20260830012026 58 0 0.0 0.0 0.00 0.00 0.00 86 1020.6
20260830011552 58 0 0.0 0.0 0.00 0.00 0.00 86 1020.6
20260830011024 58 0 0.0 0.0 0.00 0.00 0.00 85 1020.7
20260830010526 58 0 0.0 0.0 0.00 0.00 0.00 85 1020.8
20260830010048 58 0 0.0 0.0 0.00 0.00 0.00 84 1020.8
20260830005523 58 0 0.0 0.0 0.00 0.00 0.00 84 1020.7
20260830005023 58 0 0.0 0.0 0.00 0.00 0.00 83 1020.8
20260830004545 59 0 0.0 0.0 0.00 0.00 0.00 82 1020.8
20260830004023 59 0 0.0 0.0 0.00 0.00 0.00 82 1020.8
20260830003526 59 0 0.0 0.0 0.00 0.00 0.00 82 1020.8
20260830003053 60 0 0.0 0.0 0.00 0.00 0.00 81 1020.8
20260830002526 60 0 0.0 0.0 0.00 0.00 0.00 79 1020.7
20260830002028 61 0 0.0 0.0 0.00 0.00 0.00 77 1020.6
20260830001549 61 0 0.0 0.0 0.00 0.00 0.00 78 1020.6
20260830001028 61 0 0.0 0.0 0.00 0.00 0.00 78 1020.5
20260830000526 62 0 0.0 0.0 0.00 0.00 0.00 77 1020.4
20260830000049 62 0 0.0 0.0 0.00 0.00 0.00 75 1020.3